Regional Weather Roundup
Issued by NWS Newport/Morehead, NC

Current Version | Previous Version | Graphics & Text | Print | Product List | Glossary On
Versions: 1 2 3 4 5 6 7 8 9 10 11 12 13 14 15 16 17 18 19 20 21 22 23 24 25 26 27 28 29 30 31 32 33 34 35 36 37 38 39 40 41 42 43 44 45 46 47 48 49 50
000 ASUS42 KMHX 260222 RWRMHX WEATHER ROUNDUP FOR EASTERN NORTH CAROLINA NATIONAL WEATHER SERVICE NEWPORT/MOREHEAD CITY NC 1000 PM EDT FRI JUL 25 2014 NOTE: "FAIR" INDICATES FEW OR NO CLOUDS BELOW 12,000 FEET WITH NO SIGNIFICANT WEATHER AND/OR OBSTRUCTIONS TO VISIBILITY NCZ015>017-031-032-045>047-102-103-260300- NORTH COAST CITY SKY/WX TMP DP RH WIND PRES REMARKS EDENTON MOCLDY 73 65 76 SE3 30.07R ELIZABETH CITY CLEAR 71 61 70 E5 30.06R KITTY HAWK CLEAR 73 60 63 E3 30.06R MANTEO NOT AVBL $$ NCZ045>047-081-094-103-104-260300- CENTRAL COAST CITY SKY/WX TMP DP RH WIND PRES REMARKS FRISCO PTCLDY 74 68 81 NE6 30.06R SWANQUARTER N/A 73 N/A N/A NE2 30.03S $$ NCZ095-097-098-100-101-260300- SOUTHERN COAST CITY SKY/WX TMP DP RH WIND PRES REMARKS BEAUFORT CLOUDY 79 71 76 E5 30.05R CEDAR ISLAND N/A 79 N/A N/A E9 30.09S JACKSONVILLE MOCLDY 77 72 84 E5 30.04R NEWPORT NOT AVBL PINEY ISLAND CLOUDY 80 73 79 E9 30.05R WILMINGTON MOCLDY 77 74 90 N5 30.03R $$ NCZ011>013-027>030-043-044-078>080-089-090>093-098-260300- COASTAL PLAIN CITY SKY/WX TMP DP RH WIND PRES REMARKS AHOSKIE PTCLDY 73 68 86 CALM 30.06R CLINTON CLOUDY 76 74 92 CALM 30.05R ELIZABETHTOWN PTCLDY 76 75 96 CALM 30.04R GOLDSBORO MOCLDY 76 76 98 SE3 30.03R GREENVILLE MOCLDY 73 72 94 CALM 30.07R HAVELOCK CLOUDY 76 70 82 E3 30.05R KENANSVILLE MOCLDY 74 72 93 CALM 30.05S KINSTON MOCLDY 77 72 84 SE3 30.05 NEW BERN MOCLDY 78 71 79 CALM 30.06R RICHLANDS MOCLDY 75 70 83 NE3 30.05R ROANOKE RAPIDS NOT AVBL ROCKY MOUNT PTCLDY 75 69 81 E3 30.04R WASHINGTON MOCLDY 75 70 86 E3 30.06R WHITEVILLE MOCLDY 76 74 94 CALM 30.03R $$ AMZ130-135-150-152-154-156-158-170-250-252-270-ANZ085-086-088-633-658-670-260300- MARINE OBSERVATIONS STATION/POSITION TIME TEMP WIND PRES WAVE SWELL AIR SEA DIR/SP/G HT/PER HT/PER (UTC) (F) (DEG/KT/KT) (MB) (FT/S) (FT/S) CHESAPEAKE LIGHT NOT AVBL BUOY 44014 0200 76 78 10/ 6/ 6 1017.7 2/ 7 2/ 7 DUCK 0200 76 77 70/ 8/ 10 1017.0 2E DUCK 0200 N/A 2/ 5 OREGON INLET 0200 75 81 50/ 5/ 10 1017.9 BUOY 44095 0200 78 N/A 3/ 7 20E OREGON INLET NOT AVBL HATTERAS CG 0200 75 81 80/ 5/ 7 1018.1 DIAMOND BUOY 0200 VRB 12/ 14 1017.2 3/ 6 2/ 6 CAPE LOOKOUT 0200 79 90/ 10/ 10 1017.1 BEAUFORT LAB 0200 79 81 80/ 3/ 5 1017.1 30 SE NEW RIVER 0200 80 81 70/ 10/ 12 1017.1 3/ 6 3/ 6 5 SE WRIGHTSVILL 0200 77 81 120/ 8/ 10 N/A BUOY 41002 0112 81 82 240/ 12/ 14 1017.8 4/ 7 3/ 7 BUOY 41004 0200 83 83 230/ 12/ 14 1016.0 3/ 5 2/ 6 $$

USA.gov is the U.S. government's official web portal to all federal, state and local government web resources and services.